This is the latest recevied weather packets stored in our database for station/object OE-11051. If no packets are shown the sender has not sent any weather packets the latest 10 day(s).
| Time | Temp. | Humidity | Pressure | Rain* | Wind** | Luminosity | Snow |
|---|---|---|---|---|---|---|---|
| 1787685080 | 15.56° C | 94% | 1016.6 hPa | 0 mm | - | 0 W/m² | - |
| 1787684706 | 15.56° C | 93% | 1016.3 hPa | 0 mm | - | 0 W/m² | - |
| 1787684107 | 15.56° C | 93% | 1016.2 hPa | 0 mm | - | 0 W/m² | - |
| 1787683280 | 16.11° C | 92% | 1016.2 hPa | 0 mm | - | 0 W/m² | - |
| 1787682307 | 16.11° C | 90% | 1015.9 hPa | 0 mm | - | 0 W/m² | - |
| 1787681480 | 16.11° C | 89% | 1015.9 hPa | 0 mm | - | 13 W/m² | - |
| 1787681107 | 16.11° C | 89% | 1015.8 hPa | 0.25 mm | - | 19 W/m² | - |
| 1787680507 | 16.11° C | 89% | 1015.9 hPa | 0.25 mm | - | 13 W/m² | - |
| 1787679680 | 16.11° C | 88% | 1015.8 hPa | 0.25 mm | - | 19 W/m² | - |
| 1787679307 | 16.11° C | 87% | 1015.6 hPa | 0.25 mm | - | 26 W/m² | - |
| 1787678707 | 16.11° C | 88% | 1015.5 hPa | 0.51 mm | - | 32 W/m² | - |
| 1787677880 | 16.11° C | 87% | 1015.5 hPa | 0.25 mm | - | 52 W/m² | - |
| 1787677507 | 16.67° C | 86% | 1015.5 hPa | 0.25 mm | - | 52 W/m² | - |
| 1787676906 | 16.67° C | 84% | 1015.4 hPa | 0 mm | - | 45 W/m² | - |
| 1787676080 | 16.67° C | 84% | 1015.4 hPa | 0 mm | - | 32 W/m² | - |
| 1787675706 | 16.67° C | 83% | 1015.3 hPa | 0 mm | - | 26 W/m² | - |
| 1787675106 | 17.22° C | 82% | 1015.3 hPa | 0 mm | - | 26 W/m² | - |
| 1787674280 | 17.22° C | 79% | 1015.2 hPa | 0 mm | - | 19 W/m² | - |
| 1787673907 | 17.22° C | 78% | 1015.2 hPa | 0 mm | - | 19 W/m² | - |
| 1787673308 | 17.22° C | 78% | 1015.1 hPa | 0 mm | - | 39 W/m² | - |
| 1787672480 | 17.78° C | 78% | 1015.1 hPa | 0 mm | - | 71 W/m² | - |
| 1787672107 | 17.78° C | 78% | 1015 hPa | 0 mm | - | 84 W/m² | - |
| 1787671507 | 17.78° C | 79% | 1015 hPa | 0 mm | - | 122 W/m² | - |
| 1787670680 | 17.22° C | 80% | 1014.8 hPa | 0 mm | - | 161 W/m² | - |
| 1787670306 | 17.78° C | 84% | 1014.7 hPa | 0.25 mm | - | 148 W/m² | - |
* Rain latest hour (hover to see other rain measurements)
** Current wind speed in m/s (hover to see current wind gust speed)